VIR45 EGLL-KJFK

Flight info

Callsign VIR45
Flight time N/A
Altitude 36000
Route CPT L9 BUCGO DCT FELCA DCT OFSOX DCT BANBA DCT TOBOR/M082F380 NATC ELSIR/N0460F380 N402C ALLEX DCT ENE PARCH4
Aircraft A346/H-SDE2E3FGHIJ3J4J5M1RWXY/LB1D1

Departure

Time 2026-05-06 10:03
Airport London Heathrow Airport (EGLL)

Arrival

Time N/A
Airport John F. Kennedy International Airport (KJFK)
Time Latitude Longitude Altitude Speed Heading
2026-05-06 09:30 51.47101 -0.46407 94 ft 0 kts 236°
2026-05-06 09:48 51.47105 -0.46397 94 ft 0 kts 236°
2026-05-06 09:48 51.47119 -0.46363 97 ft 0 kts 236°
2026-05-06 09:49 51.47133 -0.46328 95 ft 0 kts 236°
2026-05-06 09:49 51.47147 -0.46295 97 ft 0 kts 236°
2026-05-06 09:49 51.47149 -0.46290 97 ft 0 kts 236°
2026-05-06 09:54 51.47148 -0.46292 95 ft 1 kts 236°
2026-05-06 09:54 51.47144 -0.46308 98 ft 1 kts 262°
2026-05-06 09:54 51.47148 -0.46326 97 ft 2 kts 322°
2026-05-06 09:54 51.47180 -0.46359 99 ft 8 kts 326°
2026-05-06 09:55 51.47230 -0.46426 98 ft 11 kts 303°
2026-05-06 09:55 51.47240 -0.46545 96 ft 12 kts 269°
2026-05-06 09:55 51.47239 -0.46692 94 ft 14 kts 270°
2026-05-06 09:55 51.47238 -0.46817 94 ft 9 kts 256°
2026-05-06 09:56 51.47184 -0.46870 97 ft 11 kts 178°
2026-05-06 09:56 51.47102 -0.46867 95 ft 13 kts 179°
2026-05-06 09:56 51.47006 -0.46866 95 ft 15 kts 180°
2026-05-06 09:56 51.46908 -0.46865 95 ft 11 kts 179°
2026-05-06 09:57 51.46829 -0.46863 100 ft 11 kts 179°
2026-05-06 09:57 51.46792 -0.46862 101 ft 3 kts 179°
2026-05-06 09:57 51.46769 -0.46866 103 ft 4 kts 198°
2026-05-06 09:57 51.46746 -0.46922 100 ft 10 kts 263°
2026-05-06 09:58 51.46747 -0.47080 100 ft 16 kts 270°
2026-05-06 09:58 51.46746 -0.47271 100 ft 18 kts 270°
2026-05-06 09:58 51.46746 -0.47486 97 ft 21 kts 270°
2026-05-06 09:58 51.46745 -0.47695 97 ft 11 kts 269°
2026-05-06 09:59 51.46744 -0.47820 97 ft 12 kts 269°
2026-05-06 09:59 51.46743 -0.47962 97 ft 14 kts 269°
2026-05-06 09:59 51.46743 -0.48120 99 ft 14 kts 269°
2026-05-06 09:59 51.46742 -0.48277 102 ft 14 kts 270°
2026-05-06 10:00 51.46741 -0.48444 101 ft 16 kts 265°
2026-05-06 10:00 51.46737 -0.48599 100 ft 7 kts 269°
2026-05-06 10:00 51.46736 -0.48686 100 ft 8 kts 263°
2026-05-06 10:00 51.46696 -0.48746 103 ft 9 kts 192°
2026-05-06 10:01 51.46617 -0.48761 103 ft 13 kts 186°
2026-05-06 10:01 51.46524 -0.48776 101 ft 14 kts 162°
2026-05-06 10:01 51.46477 -0.48670 104 ft 9 kts 90°
2026-05-06 10:01 51.46477 -0.48649 104 ft 0 kts 90°
2026-05-06 10:02 51.46477 -0.48629 102 ft 10 kts 90°
2026-05-06 10:02 51.46478 -0.48244 102 ft 64 kts 89°
2026-05-06 10:02 51.46485 -0.47228 101 ft 118 kts 90°
2026-05-06 10:03 51.46489 -0.45648 96 ft 163 kts 89°
2026-05-06 10:03 51.46494 -0.43640 223 ft 190 kts 86°
2026-05-06 10:03 51.46492 -0.41478 686 ft 196 kts 94°
2026-05-06 10:03 51.45913 -0.39498 1295 ft 205 kts 137°
2026-05-06 10:04 51.44590 -0.38681 1896 ft 211 kts 180°
2026-05-06 10:04 51.43196 -0.39471 2194 ft 222 kts 223°
2026-05-06 10:04 51.42271 -0.41449 2578 ft 228 kts 241°
2026-05-06 10:04 51.41411 -0.43683 2956 ft 242 kts 238°
2026-05-06 10:05 51.40336 -0.45875 3309 ft 258 kts 227°
2026-05-06 10:05 51.38971 -0.47853 3750 ft 271 kts 221°
2026-05-06 10:05 51.37480 -0.49803 4295 ft 281 kts 221°
2026-05-06 10:05 51.35936 -0.51794 4921 ft 288 kts 221°
2026-05-06 10:06 51.34394 -0.53789 5695 ft 286 kts 227°
2026-05-06 10:06 51.33369 -0.56375 6448 ft 271 kts 260°
2026-05-06 10:06 51.33391 -0.59292 6893 ft 261 kts 292°
2026-05-06 10:06 51.34245 -0.61837 7124 ft 262 kts 305°
2026-05-06 10:07 51.35253 -0.64360 7807 ft 266 kts 304°
2026-05-06 10:07 51.36203 -0.66858 8631 ft 267 kts 302°
2026-05-06 10:07 51.37165 -0.69488 9349 ft 273 kts 301°
2026-05-06 10:07 51.38101 -0.72126 10018 ft 278 kts 301°
2026-05-06 10:08 51.39057 -0.74875 10562 ft 288 kts 300°
2026-05-06 10:08 51.40054 -0.77774 10904 ft 305 kts 300°
2026-05-06 10:08 51.41103 -0.80842 11211 ft 322 kts 300°
2026-05-06 10:08 51.42208 -0.84078 11516 ft 339 kts 300°
2026-05-06 10:09 51.43370 -0.87488 11832 ft 356 kts 299°
2026-05-06 10:09 51.44579 -0.91051 12169 ft 370 kts 299°
2026-05-06 10:09 51.45819 -0.94716 12804 ft 376 kts 299°
2026-05-06 10:09 51.47064 -0.98409 13661 ft 376 kts 299°
2026-05-06 10:10 51.48311 -1.02103 14394 ft 377 kts 299°
2026-05-06 10:10 51.49572 -1.05839 15025 ft 381 kts 298°
2026-05-06 10:10 51.50838 -1.09600 15658 ft 384 kts 298°
2026-05-06 10:10 51.52114 -1.13398 16279 ft 388 kts 298°
2026-05-06 10:11 51.53404 -1.17247 16843 ft 394 kts 298°
2026-05-06 10:11 51.54712 -1.21153 17440 ft 397 kts 298°
2026-05-06 10:11 51.56030 -1.25097 18129 ft 398 kts 298°
2026-05-06 10:11 51.57344 -1.29032 18717 ft 401 kts 298°
2026-05-06 10:12 51.58668 -1.33004 19266 ft 404 kts 298°
2026-05-06 10:12 51.60000 -1.37009 19795 ft 407 kts 297°
2026-05-06 10:12 51.61341 -1.41048 20276 ft 412 kts 297°
2026-05-06 10:12 51.62681 -1.45090 20762 ft 416 kts 297°
2026-05-06 10:13 51.64048 -1.49217 21280 ft 419 kts 297°
2026-05-06 10:13 51.65426 -1.53383 21835 ft 421 kts 297°
2026-05-06 10:13 51.66805 -1.57567 22367 ft 424 kts 297°
2026-05-06 10:13 51.68191 -1.61775 22878 ft 427 kts 297°
2026-05-06 10:14 51.69445 -1.66147 23332 ft 430 kts 290°
2026-05-06 10:14 51.70365 -1.70769 23783 ft 433 kts 283°
2026-05-06 10:14 51.70936 -1.75567 24187 ft 436 kts 277°
2026-05-06 10:14 51.71192 -1.78789 24491 ft 437 kts 276°
2026-05-06 10:15 51.71540 -1.83677 24918 ft 439 kts 276°
2026-05-06 10:15 51.71993 -1.90192 25488 ft 443 kts 276°
2026-05-06 10:15 51.72227 -1.93544 25754 ft 445 kts 276°
2026-05-06 10:15 51.72691 -2.00144 26276 ft 448 kts 276°
2026-05-06 10:16 51.72928 -2.03526 26557 ft 450 kts 276°
2026-05-06 10:16 51.73280 -2.08571 26948 ft 453 kts 276°
2026-05-06 10:16 51.73633 -2.13641 27333 ft 455 kts 276°
2026-05-06 10:16 51.73981 -2.18679 27707 ft 458 kts 276°
2026-05-06 10:17 51.74334 -2.23808 28179 ft 458 kts 276°
2026-05-06 10:17 51.74683 -2.28918 28764 ft 456 kts 276°
2026-05-06 10:17 51.75029 -2.34003 29351 ft 454 kts 276°
2026-05-06 10:17 51.75371 -2.39073 29934 ft 453 kts 276°
2026-05-06 10:18 51.75711 -2.44142 30398 ft 452 kts 276°
2026-05-06 10:18 51.76048 -2.49181 30866 ft 450 kts 276°
2026-05-06 10:18 51.76376 -2.54145 31363 ft 448 kts 276°
2026-05-06 10:18 51.76705 -2.59157 31820 ft 447 kts 276°
2026-05-06 10:19 51.77032 -2.64164 32272 ft 445 kts 276°
2026-05-06 10:19 51.77353 -2.69134 32706 ft 444 kts 276°
2026-05-06 10:19 51.77672 -2.74102 33156 ft 443 kts 276°
2026-05-06 10:19 51.77989 -2.79042 33625 ft 441 kts 275°
2026-05-06 10:20 51.78302 -2.83966 34113 ft 438 kts 275°
2026-05-06 10:20 51.78610 -2.88861 34470 ft 437 kts 275°
2026-05-06 10:20 51.78914 -2.93708 34714 ft 439 kts 275°
2026-05-06 10:20 51.79221 -2.98640 34934 ft 440 kts 275°
2026-05-06 10:21 51.79526 -3.03582 35157 ft 442 kts 275°
2026-05-06 10:21 51.79830 -3.08533 35390 ft 444 kts 275°
2026-05-06 10:21 51.80134 -3.13524 35582 ft 445 kts 275°
2026-05-06 10:21 51.80437 -3.18528 35773 ft 447 kts 275°
2026-05-06 10:22 51.80739 -3.23546 35965 ft 449 kts 275°
2026-05-06 10:22 51.81040 -3.28590 36042 ft 451 kts 275°
2026-05-06 10:22 51.81637 -3.38693 36044 ft 451 kts 275°
2026-05-06 10:23 51.82224 -3.48807 36041 ft 450 kts 276°
2026-05-06 10:23 51.83151 -3.58781 36039 ft 450 kts 281°
2026-05-06 10:24 51.84428 -3.68725 36039 ft 450 kts 281°
2026-05-06 10:24 51.85564 -3.78696 36040 ft 450 kts 279°
2026-05-06 10:25 51.86595 -3.88705 36040 ft 450 kts 279°
2026-05-06 10:25 51.87630 -3.98714 36036 ft 449 kts 279°
2026-05-06 10:26 51.88663 -4.08698 36037 ft 449 kts 279°
2026-05-06 10:26 51.89689 -4.18652 36037 ft 449 kts 279°
2026-05-06 10:27 51.90712 -4.28659 36037 ft 449 kts 279°
2026-05-06 10:27 51.91726 -4.38649 36040 ft 449 kts 279°
2026-05-06 10:28 51.92732 -4.48659 36039 ft 449 kts 279°
2026-05-06 10:28 51.93728 -4.58653 36039 ft 449 kts 278°
2026-05-06 10:29 51.94717 -4.68652 36039 ft 449 kts 278°
2026-05-06 10:29 51.95691 -4.78605 36047 ft 448 kts 278°
2026-05-06 10:30 51.96663 -4.88628 36044 ft 448 kts 278°
2026-05-06 10:30 51.97626 -4.98650 36047 ft 449 kts 278°
2026-05-06 10:31 51.98581 -5.08669 36047 ft 449 kts 278°
2026-05-06 10:31 51.99522 -5.18642 36047 ft 449 kts 278°
2026-05-06 10:32 52.00461 -5.28683 36047 ft 449 kts 278°
2026-05-06 10:32 52.01390 -5.38718 36047 ft 449 kts 278°
2026-05-06 10:33 52.02311 -5.48770 36047 ft 449 kts 278°
2026-05-06 10:33 52.03225 -5.58831 36050 ft 449 kts 278°
2026-05-06 10:34 52.04124 -5.68826 36049 ft 449 kts 278°
2026-05-06 10:34 52.05020 -5.78888 36053 ft 449 kts 278°
2026-05-06 10:35 52.05907 -5.88948 36055 ft 449 kts 278°
2026-05-06 10:35 52.06785 -5.99018 36055 ft 449 kts 278°
2026-05-06 10:36 52.07653 -6.09072 36056 ft 448 kts 278°
2026-05-06 10:36 52.08513 -6.19126 36056 ft 448 kts 278°
2026-05-06 10:37 52.09365 -6.29202 36055 ft 448 kts 277°
2026-05-06 10:37 52.10204 -6.39215 36055 ft 448 kts 277°
2026-05-06 10:38 52.11038 -6.49292 36065 ft 448 kts 277°
2026-05-06 10:38 52.11863 -6.59359 36058 ft 448 kts 277°
2026-05-06 10:39 52.12681 -6.69438 36059 ft 448 kts 277°
2026-05-06 10:39 52.13488 -6.79502 36061 ft 448 kts 277°
2026-05-06 10:40 52.14286 -6.89568 36062 ft 448 kts 277°
2026-05-06 10:40 52.15076 -6.99656 36062 ft 448 kts 277°
2026-05-06 10:41 52.15855 -7.09689 36062 ft 448 kts 277°
2026-05-06 10:41 52.16629 -7.19780 36063 ft 448 kts 277°
2026-05-06 10:42 52.17396 -7.29889 36062 ft 448 kts 277°
2026-05-06 10:42 52.18153 -7.39991 36060 ft 448 kts 277°
2026-05-06 10:43 52.18900 -7.50099 36055 ft 449 kts 277°
2026-05-06 10:44 52.20009 -7.65290 36049 ft 449 kts 277°
2026-05-06 10:44 52.20737 -7.75421 36047 ft 449 kts 277°
2026-05-06 10:45 52.21453 -7.85508 36046 ft 449 kts 277°
2026-05-06 10:45 52.22164 -7.95661 36040 ft 450 kts 277°
2026-05-06 10:46 52.22867 -8.05833 36044 ft 451 kts 277°
2026-05-06 10:46 52.23564 -8.16017 36042 ft 451 kts 277°
2026-05-06 10:47 52.24247 -8.26160 36042 ft 452 kts 277°
2026-05-06 10:47 52.24928 -8.36392 36043 ft 453 kts 277°
2026-05-06 10:48 52.25600 -8.46631 36037 ft 454 kts 277°
2026-05-06 10:48 52.26266 -8.56911 36041 ft 455 kts 277°
2026-05-06 10:49 52.26924 -8.67198 36041 ft 455 kts 277°
2026-05-06 10:49 52.27574 -8.77489 36047 ft 455 kts 276°
2026-05-06 10:50 52.28214 -8.87789 36047 ft 455 kts 276°
2026-05-06 10:50 52.28840 -8.98046 36048 ft 456 kts 277°
2026-05-06 10:51 52.29465 -9.08388 36050 ft 456 kts 276°
2026-05-06 10:51 52.30081 -9.18737 36050 ft 457 kts 276°
2026-05-06 10:52 52.30688 -9.29088 36051 ft 457 kts 276°
2026-05-06 10:52 52.31285 -9.39437 36062 ft 457 kts 276°
2026-05-06 10:53 52.31868 -9.49743 36054 ft 458 kts 276°
2026-05-06 10:53 52.32450 -9.60144 36059 ft 459 kts 276°
2026-05-06 10:54 52.33024 -9.70557 36059 ft 459 kts 276°
2026-05-06 10:54 52.33589 -9.80995 36061 ft 459 kts 276°
2026-05-06 10:55 52.34143 -9.91404 36061 ft 459 kts 276°
2026-05-06 10:55 52.34682 -10.01784 36067 ft 461 kts 277°
2026-05-06 10:56 52.35222 -10.12269 36073 ft 462 kts 277°
2026-05-06 10:56 52.35756 -10.22787 36068 ft 462 kts 276°
2026-05-06 10:57 52.36279 -10.33294 36066 ft 462 kts 276°
2026-05-06 10:57 52.36790 -10.43779 36070 ft 462 kts 276°
2026-05-06 10:58 52.38765 -10.86321 36072 ft 462 kts 276°
2026-05-06 10:58 52.40985 -11.38720 36072 ft 464 kts 276°
2026-05-06 10:59 52.43040 -11.93022 36079 ft 464 kts 276°
2026-05-06 10:59 52.44834 -12.46808 36077 ft 464 kts 276°
2026-05-06 11:00 52.46398 -13.01259 36089 ft 464 kts 276°
2026-05-06 11:00 52.47721 -13.56150 36070 ft 464 kts 275°
2026-05-06 11:01 52.48785 -14.10777 36076 ft 461 kts 275°
2026-05-06 11:01 52.49594 -14.65050 36076 ft 461 kts 274°
2026-05-06 11:02 52.52209 -15.18759 37087 ft 456 kts 284°
2026-05-06 11:02 52.58404 -15.70857 37087 ft 456 kts 283°
2026-05-06 11:03 52.63288 -16.13678 37089 ft 456 kts 283°
2026-05-06 11:03 52.69033 -16.66025 37091 ft 453 kts 282°
2026-05-06 11:04 52.74544 -17.18473 37091 ft 453 kts 282°
2026-05-06 11:04 52.79752 -17.70327 37084 ft 452 kts 281°
2026-05-06 11:05 52.84708 -18.22055 37088 ft 451 kts 281°
2026-05-06 11:05 52.89491 -18.74467 37086 ft 450 kts 280°
2026-05-06 11:06 52.94012 -19.26592 37091 ft 450 kts 279°
2026-05-06 11:06 52.98330 -19.79130 37086 ft 451 kts 278°
2026-05-06 11:07 53.01281 -20.32066 37092 ft 453 kts 274°
2026-05-06 11:07 53.03200 -20.83854 37091 ft 454 kts 273°
2026-05-06 11:08 53.04960 -21.37832 38091 ft 454 kts 273°
2026-05-06 11:08 53.06500 -21.92510 38094 ft 454 kts 272°
2026-05-06 11:09 53.07790 -22.47409 38101 ft 455 kts 271°
2026-05-06 11:09 53.08826 -23.02285 38107 ft 456 kts 271°
2026-05-06 11:10 53.09617 -23.57781 38112 ft 456 kts 270°
2026-05-06 11:10 53.10143 -24.12594 38116 ft 457 kts 269°
2026-05-06 11:11 53.10420 -24.67894 38118 ft 459 kts 269°
2026-05-06 11:11 53.10440 -25.23576 38115 ft 460 kts 268°
2026-05-06 11:12 53.10200 -25.79459 38116 ft 461 kts 268°
2026-05-06 11:12 53.09698 -26.35275 38105 ft 461 kts 267°
2026-05-06 11:13 53.08942 -26.90757 38094 ft 461 kts 267°
2026-05-06 11:13 53.07921 -27.46492 38092 ft 461 kts 266°
2026-05-06 11:14 53.06632 -28.02524 38069 ft 461 kts 266°
2026-05-06 11:14 53.05078 -28.58555 38064 ft 462 kts 266°
2026-05-06 11:15 53.03266 -29.14419 38051 ft 463 kts 266°
2026-05-06 11:15 53.01186 -29.70453 38045 ft 464 kts 265°
2026-05-06 11:16 52.99737 -30.26032 38025 ft 465 kts 268°
2026-05-06 11:16 52.99058 -30.82204 38051 ft 464 kts 268°
2026-05-06 11:17 52.98156 -31.35976 38057 ft 461 kts 268°
2026-05-06 11:17 52.96974 -31.91261 38085 ft 462 kts 267°
2026-05-06 11:18 52.95501 -32.47733 38079 ft 464 kts 267°
2026-05-06 11:18 52.93751 -33.04426 38100 ft 464 kts 266°
2026-05-06 11:19 52.91718 -33.61433 38105 ft 466 kts 266°
2026-05-06 11:19 52.89418 -34.18296 38129 ft 467 kts 266°
2026-05-06 11:20 52.86831 -34.75385 38121 ft 467 kts 265°
2026-05-06 11:20 52.83976 -35.32311 38127 ft 467 kts 265°
2026-05-06 11:21 52.80888 -35.88485 38131 ft 465 kts 265°
2026-05-06 11:21 52.77580 -36.43859 38130 ft 463 kts 265°
2026-05-06 11:22 52.73967 -36.99861 38130 ft 462 kts 265°
2026-05-06 11:22 52.70116 -37.55409 38132 ft 461 kts 264°
2026-05-06 11:23 52.65984 -38.11137 38131 ft 460 kts 264°
2026-05-06 11:23 52.61598 -38.66690 38134 ft 460 kts 264°
2026-05-06 11:24 52.56955 -39.22102 38135 ft 459 kts 263°
2026-05-06 11:24 52.52062 -39.77371 38134 ft 459 kts 263°
2026-05-06 11:25 52.43826 -40.31117 38137 ft 460 kts 255°
2026-05-06 11:25 52.33198 -40.83834 38134 ft 460 kts 255°
2026-05-06 11:26 52.23803 -41.29314 38129 ft 458 kts 254°
2026-05-06 11:26 52.20487 -41.45131 38107 ft 458 kts 254°
2026-05-06 11:27 52.09676 -41.95815 38125 ft 456 kts 254°
2026-05-06 11:27 51.98597 -42.46490 38138 ft 453 kts 254°
2026-05-06 11:28 51.87479 -42.96140 38142 ft 451 kts 253°
2026-05-06 11:28 51.75965 -43.46354 38150 ft 451 kts 253°
2026-05-06 11:29 51.64340 -43.95873 38151 ft 449 kts 253°
2026-05-06 11:29 51.52505 -44.45155 38161 ft 447 kts 253°
2026-05-06 11:30 51.40578 -44.93720 38155 ft 444 kts 253°
2026-05-06 11:30 51.28567 -45.41579 38150 ft 441 kts 252°
2026-05-06 11:31 51.16536 -45.88512 38148 ft 440 kts 252°
2026-05-06 11:31 51.04124 -46.35931 38143 ft 438 kts 252°
2026-05-06 11:32 50.91566 -46.82928 38135 ft 436 kts 251°
2026-05-06 11:32 50.78840 -47.29601 38124 ft 435 kts 251°
2026-05-06 11:33 50.66063 -47.75542 38118 ft 432 kts 251°
2026-05-06 11:33 50.53132 -48.21142 38096 ft 432 kts 250°
2026-05-06 11:34 50.39993 -48.66606 38102 ft 430 kts 249°
2026-05-06 11:34 50.26726 -49.11636 38110 ft 428 kts 249°
2026-05-06 11:35 50.13309 -49.56358 38103 ft 429 kts 249°
2026-05-06 11:35 49.99883 -50.00586 38102 ft 429 kts 251°
2026-05-06 11:36 49.88806 -50.46223 38092 ft 428 kts 252°
2026-05-06 11:36 49.77707 -50.91265 39083 ft 428 kts 252°
2026-05-06 11:37 49.66539 -51.35672 39092 ft 424 kts 251°
2026-05-06 11:37 49.55344 -51.79356 39074 ft 424 kts 251°
2026-05-06 11:38 49.44447 -52.22273 39062 ft 421 kts 252°
2026-05-06 11:38 49.33788 -52.64742 39061 ft 420 kts 251°
2026-05-06 11:39 49.23068 -53.06642 39053 ft 416 kts 251°
2026-05-06 11:39 49.12402 -53.47579 39061 ft 414 kts 250°
2026-05-06 11:40 49.01269 -53.89549 39069 ft 413 kts 250°
2026-05-06 11:40 48.89816 -54.31940 39092 ft 413 kts 249°
2026-05-06 11:41 48.78248 -54.74011 39080 ft 413 kts 248°
2026-05-06 11:41 48.66518 -55.15904 39093 ft 415 kts 248°
2026-05-06 11:42 48.54610 -55.57712 39087 ft 415 kts 246°
2026-05-06 11:42 48.42456 -55.99618 39072 ft 418 kts 246°
2026-05-06 11:43 48.30122 -56.41446 39064 ft 417 kts 245°
2026-05-06 11:43 48.17602 -56.83167 39075 ft 420 kts 245°
2026-05-06 11:44 47.98448 -57.45678 39116 ft 421 kts 244°
2026-05-06 11:44 47.85395 -57.87396 39124 ft 423 kts 244°
2026-05-06 11:45 47.72280 -58.28633 39118 ft 421 kts 243°
2026-05-06 11:45 47.58845 -58.70189 39106 ft 424 kts 243°
2026-05-06 11:46 47.45238 -59.11601 39086 ft 426 kts 243°
2026-05-06 11:46 47.31399 -59.53047 39070 ft 426 kts 242°
2026-05-06 11:47 47.17524 -59.93945 39058 ft 422 kts 242°
2026-05-06 11:47 47.03665 -60.34168 39041 ft 422 kts 242°
2026-05-06 11:48 46.89797 -60.73807 39038 ft 416 kts 242°
2026-05-06 11:48 46.75750 -61.13361 39022 ft 417 kts 242°
2026-05-06 11:49 46.61465 -61.52991 39007 ft 419 kts 242°
2026-05-06 11:49 46.47043 -61.92414 39021 ft 419 kts 242°
2026-05-06 11:50 46.32653 -62.31182 39015 ft 414 kts 242°
2026-05-06 11:50 46.18285 -62.69342 38999 ft 414 kts 242°
2026-05-06 11:51 46.03712 -63.07510 39009 ft 412 kts 242°
2026-05-06 11:51 45.91539 -63.38986 39004 ft 412 kts 242°
2026-05-06 11:52 45.74661 -63.82042 39012 ft 408 kts 241°
2026-05-06 11:52 45.62432 -64.12821 39006 ft 409 kts 241°
2026-05-06 11:53 45.47555 -64.49815 39020 ft 413 kts 240°
2026-05-06 11:53 45.32691 -64.86289 39028 ft 416 kts 240°
2026-05-06 11:54 45.17047 -65.24168 39021 ft 422 kts 240°
2026-05-06 11:54 45.01372 -65.61606 39024 ft 423 kts 240°
2026-05-06 11:55 44.85463 -65.99133 39024 ft 426 kts 240°
2026-05-06 11:55 44.69528 -66.36216 39005 ft 426 kts 240°
2026-05-06 11:56 44.53291 -66.73524 38998 ft 425 kts 241°
2026-05-06 11:56 44.38620 -67.11665 39003 ft 419 kts 252°
2026-05-06 11:57 44.28238 -67.52048 38987 ft 423 kts 251°
2026-05-06 11:57 44.17648 -67.92446 38963 ft 424 kts 251°
2026-05-06 11:58 44.06820 -68.33074 38944 ft 427 kts 251°
2026-05-06 11:58 44.03280 -68.46201 38979 ft 427 kts 252°
2026-05-06 11:59 44.01200 -68.53878 38963 ft 422 kts 252°
2026-05-06 11:59 43.99140 -68.61479 38953 ft 422 kts 252°
2026-05-06 12:00 43.97065 -68.69103 38957 ft 422 kts 252°
2026-05-06 12:00 43.94983 -68.76727 38936 ft 421 kts 252°
2026-05-06 12:01 43.92895 -68.84347 38948 ft 421 kts 252°
2026-05-06 12:01 43.90805 -68.91952 38949 ft 421 kts 252°
2026-05-06 12:02 43.88713 -68.99537 38955 ft 419 kts 252°
2026-05-06 12:02 43.86625 -69.07083 38953 ft 418 kts 251°
2026-05-06 12:03 43.84552 -69.14556 38945 ft 418 kts 251°
2026-05-06 12:03 43.82445 -69.22123 38949 ft 417 kts 251°
2026-05-06 12:04 43.80348 -69.29633 38946 ft 417 kts 251°
2026-05-06 12:04 43.78240 -69.37163 38945 ft 417 kts 251°
2026-05-06 12:05 43.76134 -69.44662 38956 ft 417 kts 251°
2026-05-06 12:05 43.74045 -69.52075 38940 ft 414 kts 251°
2026-05-06 12:06 43.71947 -69.59500 38935 ft 413 kts 251°
2026-05-06 12:06 43.69850 -69.66895 38942 ft 412 kts 251°
2026-05-06 12:07 43.67748 -69.74292 38929 ft 412 kts 251°
2026-05-06 12:07 43.65644 -69.81673 38929 ft 412 kts 251°
2026-05-06 12:08 43.63533 -69.89057 38941 ft 412 kts 251°
2026-05-06 12:08 43.61410 -69.96463 38987 ft 415 kts 251°
2026-05-06 12:09 43.60365 -70.00100 39303 ft 411 kts 251°
2026-05-06 12:09 43.59297 -70.03804 39657 ft 408 kts 251°
2026-05-06 12:09 43.58249 -70.07441 39883 ft 407 kts 251°
2026-05-06 12:09 43.57201 -70.11077 39894 ft 408 kts 251°
2026-05-06 12:10 43.55114 -70.18296 39904 ft 407 kts 251°
2026-05-06 12:10 43.53009 -70.25558 39906 ft 407 kts 251°
2026-05-06 12:11 43.50904 -70.32804 39906 ft 407 kts 251°
2026-05-06 12:11 43.48787 -70.40070 39908 ft 407 kts 251°
2026-05-06 12:12 43.46664 -70.47322 39905 ft 407 kts 250°
2026-05-06 12:12 43.43886 -70.54163 39905 ft 413 kts 238°
2026-05-06 12:13 43.39963 -70.60045 39906 ft 422 kts 226°
2026-05-06 12:13 43.35040 -70.64617 39906 ft 434 kts 214°
2026-05-06 12:14 43.29367 -70.67766 39897 ft 442 kts 207°
2026-05-06 12:14 43.23575 -70.70627 39904 ft 442 kts 207°
2026-05-06 12:15 43.17819 -70.73451 39889 ft 442 kts 207°
2026-05-06 12:15 43.12027 -70.76289 39889 ft 442 kts 207°
2026-05-06 12:16 43.06229 -70.79127 39889 ft 442 kts 207°
2026-05-06 12:16 43.00430 -70.81961 39891 ft 442 kts 207°
2026-05-06 12:17 42.94631 -70.84793 39878 ft 443 kts 207°
2026-05-06 12:17 42.88812 -70.87627 39913 ft 443 kts 207°
2026-05-06 12:18 42.83007 -70.90442 39932 ft 442 kts 207°
2026-05-06 12:18 42.77206 -70.93242 39913 ft 442 kts 207°
2026-05-06 12:19 42.71418 -70.96023 39929 ft 441 kts 207°
2026-05-06 12:19 42.65630 -70.98804 39934 ft 441 kts 207°
2026-05-06 12:20 42.59843 -71.01581 39930 ft 441 kts 207°
2026-05-06 12:20 42.54092 -71.04338 39930 ft 441 kts 207°
2026-05-06 12:21 42.48303 -71.07109 39940 ft 441 kts 207°
2026-05-06 12:21 42.42512 -71.09875 39930 ft 441 kts 207°
2026-05-06 12:22 42.36704 -71.12644 39939 ft 442 kts 207°
2026-05-06 12:22 42.33797 -71.14028 39791 ft 443 kts 207°
2026-05-06 12:22 42.30899 -71.15406 39572 ft 441 kts 207°
2026-05-06 12:23 42.28016 -71.16772 39331 ft 438 kts 207°
2026-05-06 12:23 42.25145 -71.18133 39060 ft 436 kts 207°
2026-05-06 12:23 42.22290 -71.19484 38822 ft 435 kts 207°
2026-05-06 12:23 42.19435 -71.20837 38585 ft 434 kts 208°
2026-05-06 12:24 42.16586 -71.22189 38308 ft 435 kts 207°
2026-05-06 12:24 42.13763 -71.23529 38027 ft 435 kts 207°
2026-05-06 12:24 42.10908 -71.24881 37763 ft 435 kts 207°
2026-05-06 12:24 42.08051 -71.26232 37481 ft 435 kts 207°
2026-05-06 12:25 42.05188 -71.27583 37203 ft 436 kts 207°
2026-05-06 12:25 42.02312 -71.28940 36936 ft 437 kts 207°
2026-05-06 12:25 41.99440 -71.30293 36674 ft 437 kts 207°
2026-05-06 12:25 41.96568 -71.31645 36413 ft 437 kts 207°
2026-05-06 12:26 41.93693 -71.32997 36157 ft 438 kts 206°
2026-05-06 12:26 41.90814 -71.34350 35902 ft 438 kts 206°
2026-05-06 12:26 41.87938 -71.35701 35625 ft 438 kts 206°
2026-05-06 12:26 41.85097 -71.37032 35378 ft 439 kts 206°
2026-05-06 12:27 41.82209 -71.38384 35151 ft 439 kts 206°
2026-05-06 12:27 41.79354 -71.39831 34911 ft 437 kts 208°
2026-05-06 12:27 41.76541 -71.41487 34665 ft 435 kts 211°
2026-05-06 12:27 41.73850 -71.43308 34419 ft 432 kts 214°
2026-05-06 12:28 41.71278 -71.45284 34118 ft 431 kts 217°
2026-05-06 12:28 41.68761 -71.47459 33585 ft 430 kts 219°
2026-05-06 12:28 41.66341 -71.49803 32926 ft 429 kts 222°
2026-05-06 12:28 41.64018 -71.52311 32288 ft 428 kts 224°
2026-05-06 12:29 41.61737 -71.54860 31726 ft 427 kts 224°
2026-05-06 12:29 41.59459 -71.57397 31170 ft 426 kts 224°
2026-05-06 12:29 41.57181 -71.59930 30642 ft 424 kts 223°
2026-05-06 12:29 41.54909 -71.62460 30054 ft 425 kts 223°
2026-05-06 12:30 41.52629 -71.64996 29331 ft 425 kts 223°
2026-05-06 12:30 41.50346 -71.67529 28674 ft 425 kts 223°
2026-05-06 12:30 41.48102 -71.70018 28055 ft 425 kts 223°
2026-05-06 12:30 41.45818 -71.72548 27395 ft 425 kts 223°
2026-05-06 12:31 41.43543 -71.75069 26872 ft 425 kts 223°
2026-05-06 12:31 41.41275 -71.77579 26465 ft 423 kts 223°
2026-05-06 12:31 41.39020 -71.80073 26042 ft 419 kts 223°
2026-05-06 12:31 41.36781 -71.82549 25620 ft 416 kts 223°
2026-05-06 12:32 41.34558 -71.85006 25186 ft 413 kts 223°
2026-05-06 12:32 41.32352 -71.87441 24751 ft 410 kts 223°
2026-05-06 12:32 41.30159 -71.89858 24310 ft 406 kts 223°
2026-05-06 12:32 41.27986 -71.92248 23877 ft 407 kts 223°
2026-05-06 12:33 41.25800 -71.94652 23792 ft 417 kts 223°
2026-05-06 12:33 41.23549 -71.97124 23808 ft 420 kts 223°
2026-05-06 12:33 41.21296 -71.99594 23772 ft 421 kts 223°
2026-05-06 12:33 41.19034 -72.02075 23293 ft 420 kts 223°